• In Deutschland
  • Länderverzeichnis
  • Für 7 Tage
  • Wassertemperatur
  • Satellitenkarten
  • Wetterkarte
  • Widgets
  • user-avatar
    Anmelden

    Stündliche Wetter Engelskirchen

    Heute, 16 Dezember, Samstag

    Zeit Temperatur Niederschläge Wind Luftdruck Luftfeuchtigkeit
    00:00 0°C° 0 mm 0 m/S 731 mmHg 94%
    01:00 +1°C° 0 mm 1 m/S 731 mmHg 94%
    02:00 +1°C° 0 mm 1 m/S 732 mmHg 95%
    03:00 +1°C° 0 mm 1 m/S 732 mmHg 96%
    04:00 -1°C° 0 mm 2 m/S 733 mmHg 96%
    05:00 -1°C° 0 mm 2 m/S 733 mmHg 95%
    06:00 +1°C° 0 mm 2 m/S 734 mmHg 96%
    07:00 +1°C° 0,1 mm 2 m/S 734 mmHg 95%
    08:00 0°C° 0,1 mm 3 m/S 735 mmHg 94%
    09:00 0°C° 0,1 mm 3 m/S 736 mmHg 92%
    10:00 +1°C° 0 mm 3 m/S 736 mmHg 89%
    11:00 +1°C° 0 mm 3 m/S 737 mmHg 85%
    12:00 +2°C° 0 mm 3 m/S 737 mmHg 82%
    13:00 +2°C° 0 mm 3 m/S 737 mmHg 82%
    14:00 +2°C° 0 mm 3 m/S 738 mmHg 83%
    15:00 +1°C° 0 mm 3 m/S 738 mmHg 83%
    16:00 +1°C° 0,1 mm 3 m/S 739 mmHg 84%
    17:00 +1°C° 0,1 mm 3 m/S 739 mmHg 85%
    18:00 0°C° 0,1 mm 3 m/S 740 mmHg 86%
    19:00 0°C° 0,1 mm 3 m/S 740 mmHg 88%
    20:00 0°C° 0,1 mm 3 m/S 740 mmHg 89%
    21:00 0°C° 0,1 mm 3 m/S 741 mmHg 91%
    22:00 0°C° 0,1 mm 3 m/S 741 mmHg 91%
    23:00 0°C° 0,1 mm 3 m/S 741 mmHg 92%

    Morgen, 17 Dezember, Sonntag

    Zeit Temperatur Niederschläge Wind Luftdruck Luftfeuchtigkeit
    00:00 0°C° 0,1 mm 3 m/S 742 mmHg 92%
    01:00 0°C° 0,2 mm 3 m/S 742 mmHg 92%
    02:00 0°C° 0,2 mm 3 m/S 742 mmHg 92%
    03:00 0°C° 0,2 mm 3 m/S 743 mmHg 92%
    04:00 0°C° 0,1 mm 3 m/S 743 mmHg 93%
    05:00 0°C° 0,1 mm 3 m/S 743 mmHg 93%
    06:00 -1°C° 0,1 mm 3 m/S 744 mmHg 93%
    07:00 0°C° 0 mm 3 m/S 744 mmHg 93%
    08:00 +1°C° 0 mm 2 m/S 745 mmHg 92%
    09:00 +1°C° 0 mm 2 m/S 745 mmHg 92%
    10:00 +1°C° 0 mm 2 m/S 745 mmHg 90%
    11:00 +2°C° 0 mm 2 m/S 746 mmHg 88%
    12:00 +3°C° 0 mm 2 m/S 746 mmHg 86%
    13:00 +2°C° 0 mm 2 m/S 746 mmHg 87%
    14:00 +2°C° 0 mm 2 m/S 746 mmHg 89%
    15:00 +2°C° 0 mm 2 m/S 746 mmHg 91%
    16:00 +2°C° 0 mm 2 m/S 747 mmHg 92%
    17:00 +2°C° 0 mm 2 m/S 747 mmHg 92%
    18:00 0°C° 0 mm 3 m/S 747 mmHg 93%
    19:00 0°C° 0 mm 3 m/S 747 mmHg 91%
    20:00 0°C° 0 mm 3 m/S 747 mmHg 90%
    21:00 0°C° 0 mm 3 m/S 747 mmHg 88%
    22:00 0°C° 0,1 mm 3 m/S 746 mmHg 86%
    23:00 -1°C° 0,1 mm 4 m/S 746 mmHg 83%

    übermorgen, 18 Dezember, Montag

    Zeit Temperatur Niederschläge Wind Luftdruck Luftfeuchtigkeit
    00:00 -1°C° 0,1 mm 4 m/S 746 mmHg 81%
    01:00 -1°C° 0,7 mm 4 m/S 745 mmHg 84%
    02:00 0°C° 0,7 mm 4 m/S 744 mmHg 87%
    03:00 0°C° 0,7 mm 5 m/S 743 mmHg 90%
    04:00 0°C° 0,7 mm 4 m/S 743 mmHg 91%
    05:00 +1°C° 0,7 mm 4 m/S 743 mmHg 93%
    06:00 +2°C° 0,7 mm 3 m/S 743 mmHg 95%
    07:00 +2°C° 0,1 mm 3 m/S 744 mmHg 93%
    08:00 +2°C° 0,1 mm 3 m/S 744 mmHg 91%
    09:00 +3°C° 0,1 mm 3 m/S 744 mmHg 90%
    10:00 +3°C° 0 mm 4 m/S 745 mmHg 87%
    11:00 +3°C° 0 mm 4 m/S 745 mmHg 84%
    12:00 +4°C° 0 mm 4 m/S 746 mmHg 81%
    13:00 +3°C° 0 mm 4 m/S 746 mmHg 82%
    14:00 +3°C° 0 mm 3 m/S 747 mmHg 84%
    15:00 +3°C° 0 mm 3 m/S 747 mmHg 86%
    16:00 +3°C° 0 mm 2 m/S 748 mmHg 87%
    17:00 +2°C° 0 mm 2 m/S 749 mmHg 89%
    18:00 +2°C° 0 mm 2 m/S 749 mmHg 91%
    19:00 +2°C° 0 mm 1 m/S 750 mmHg 91%
    20:00 +2°C° 0 mm 1 m/S 750 mmHg 92%
    21:00 +1°C° 0 mm 1 m/S 751 mmHg 92%
    22:00 +1°C° 0 mm 1 m/S 751 mmHg 92%
    23:00 +1°C° 0 mm 1 m/S 752 mmHg 92%

    19 Dezember, Dienstag

    Zeit Temperatur Niederschläge Wind Luftdruck Luftfeuchtigkeit
    00:00 +1°C° 0 mm 1 m/S 752 mmHg 92%
    01:00 +1°C° 0 mm 1 m/S 752 mmHg 92%
    02:00 +1°C° 0 mm 1 m/S 753 mmHg 92%
    03:00 0°C° 0 mm 1 m/S 753 mmHg 92%
    04:00 0°C° 0 mm 1 m/S 753 mmHg 93%
    05:00 0°C° 0 mm 1 m/S 754 mmHg 93%
    06:00 0°C° 0 mm 1 m/S 754 mmHg 93%
    07:00 +1°C° 0 mm 1 m/S 754 mmHg 93%
    08:00 +1°C° 0 mm 1 m/S 755 mmHg 92%
    09:00 +2°C° 0 mm 1 m/S 755 mmHg 91%
    10:00 +3°C° 0 mm 1 m/S 755 mmHg 91%
    11:00 +3°C° 0 mm 2 m/S 755 mmHg 90%
    12:00 +3°C° 0 mm 2 m/S 755 mmHg 89%
    13:00 +3°C° 0 mm 2 m/S 755 mmHg 91%
    14:00 +3°C° 0 mm 2 m/S 755 mmHg 92%
    15:00 +3°C° 0 mm 2 m/S 754 mmHg 94%
    16:00 +3°C° 0 mm 2 m/S 755 mmHg 95%
    17:00 +3°C° 0 mm 2 m/S 755 mmHg 95%
    18:00 +2°C° 0 mm 2 m/S 755 mmHg 96%
    19:00 +2°C° 0 mm 2 m/S 755 mmHg 95%
    20:00 +2°C° 0 mm 2 m/S 755 mmHg 95%
    21:00 +2°C° 0 mm 2 m/S 755 mmHg 94%
    22:00 +2°C° 0 mm 2 m/S 755 mmHg 94%
    23:00 +2°C° 0 mm 2 m/S 754 mmHg 93%

    20 Dezember, Mittwoch

    Zeit Temperatur Niederschläge Wind Luftdruck Luftfeuchtigkeit
    00:00 +1°C° 0 mm 3 m/S 754 mmHg 92%
    01:00 +2°C° 0 mm 2 m/S 754 mmHg 93%
    02:00 +3°C° 0 mm 2 m/S 754 mmHg 93%
    03:00 +3°C° 0 mm 2 m/S 754 mmHg 93%
    04:00 +3°C° 0,1 mm 2 m/S 754 mmHg 94%
    05:00 +3°C° 0,1 mm 2 m/S 753 mmHg 95%
    06:00 +3°C° 0,1 mm 2 m/S 753 mmHg 95%
    07:00 +4°C° 0,1 mm 2 m/S 754 mmHg 96%
    08:00 +4°C° 0,1 mm 2 m/S 754 mmHg 96%
    09:00 +4°C° 0,1 mm 2 m/S 754 mmHg 97%
    10:00 +5°C° 0,1 mm 2 m/S 754 mmHg 97%
    11:00 +5°C° 0,1 mm 2 m/S 754 mmHg 97%
    12:00 +6°C° 0,1 mm 2 m/S 754 mmHg 97%
    13:00 +6°C° 0 mm 2 m/S 754 mmHg 97%
    14:00 +6°C° 0 mm 2 m/S 754 mmHg 97%
    15:00 +6°C° 0 mm 2 m/S 754 mmHg 97%
    16:00 +6°C° 0,1 mm 2 m/S 754 mmHg 97%
    17:00 +6°C° 0,1 mm 2 m/S 754 mmHg 97%
    18:00 +6°C° 0,1 mm 2 m/S 754 mmHg 97%
    19:00 +6°C° 0,1 mm 2 m/S 754 mmHg 97%
    20:00 +7°C° 0,1 mm 2 m/S 754 mmHg 97%
    21:00 +7°C° 0,1 mm 2 m/S 754 mmHg 97%
    22:00 +7°C° 0,1 mm 3 m/S 754 mmHg 97%
    23:00 +7°C° 0,1 mm 3 m/S 754 mmHg 97%

    21 Dezember, Donnerstag

    Zeit Temperatur Niederschläge Wind Luftdruck Luftfeuchtigkeit
    00:00 +7°C° 0,1 mm 3 m/S 754 mmHg 96%
    01:00 +7°C° 0 mm 3 m/S 754 mmHg 96%
    02:00 +7°C° 0 mm 3 m/S 753 mmHg 96%
    03:00 +7°C° 0 mm 3 m/S 753 mmHg 96%
    04:00 +7°C° 0 mm 3 m/S 753 mmHg 96%
    05:00 +7°C° 0 mm 3 m/S 753 mmHg 96%
    06:00 +7°C° 0 mm 3 m/S 753 mmHg 95%
    07:00 +7°C° 0,1 mm 3 m/S 753 mmHg 95%
    08:00 +7°C° 0,1 mm 3 m/S 753 mmHg 95%
    09:00 +6°C° 0,1 mm 4 m/S 753 mmHg 95%
    10:00 +7°C° 0 mm 4 m/S 753 mmHg 93%
    11:00 +7°C° 0 mm 4 m/S 752 mmHg 91%
    12:00 +7°C° 0 mm 4 m/S 752 mmHg 90%
    13:00 +7°C° 0 mm 4 m/S 752 mmHg 90%
    14:00 +7°C° 0 mm 4 m/S 752 mmHg 91%
    15:00 +7°C° 0 mm 4 m/S 751 mmHg 91%
    16:00 +7°C° 0,1 mm 4 m/S 751 mmHg 91%
    17:00 +7°C° 0,1 mm 4 m/S 751 mmHg 92%
    18:00 +7°C° 0,1 mm 4 m/S 751 mmHg 92%
    19:00 +8°C° 0,1 mm 4 m/S 750 mmHg 92%
    20:00 +8°C° 0,1 mm 4 m/S 750 mmHg 91%
    21:00 +8°C° 0,1 mm 5 m/S 749 mmHg 91%
    22:00 +8°C° 0,4 mm 5 m/S 749 mmHg 90%
    23:00 +8°C° 0,4 mm 6 m/S 748 mmHg 89%
    Mehr zeigen